RESURS O1 DEB, 23346

Orbit data source: Space-Track

RESURS O1 DEB, 23346 is space debris in SSO originally from a launch on Fri, 04 Nov 1994 UTC launched from the Tyuratam Missile And Space Complex (TTMTR). Debris objects in space refer to the collection of defunct objects orbiting the Earth. Examples of debris include non-operational satellites, rocket bodies, and fragments generated from explosions, collisions, or faulty payload assembly.

Loading next visibility...
Identifier
23346, 1994-074E
Orbit
SSO
Country
Flag of CISCIS
Related business
Manufacturer
Yuzhnoe
Mission
Spacecraft
Bus & Motor
SEP MOTOR COVER, Unknown motor
Mass
~0 kg wet, ~1 kg dry
Launch date (UTC)
1994-11-04 (32 years ago)
Launch vehicle
Unknown
Launch site
Tyuratam Missile And Space Complex (TTMTR)
Object type
Payload
Rocket body
Debris
Shape & HBR
CONE, 0.5 m
Radar Cross Section
Medium (>0.1 m² and <1 m²)

Expand to show TLE details & history
Last TLE update: 10 hours ago

TLE from 10 hours ago
0 RESURS O1 DEB
1 23346U 94074E   26249.49126457  .00000433  00000-0  13455-3 0  9994
2 23346  98.4714 346.8359 0168950 198.2624 161.2450 14.38308910662855
Epoch: 2026-09-06T11:47Z
TLE epoch observation values (Epoch: 2026-09-06T11:47:25.258Z)
Latitude
-0.00005°
Longitude
-175.60495°
Altitude
881.529 km
Speed
7.352 km/s
True Right ascension
23h 07m 20s
True Declination
0° 00' 00"
Sunlit
Object was in full shadow at epoch
Visualization orbit readout
Latitude
Unknown
Longitude
Unknown
Altitude
Unknown
Speed
Unknown
Apparent Right ascension
Unknown
Apparent Declination
Unknown
Sunlit
N/A
Visualization observer readout
Local Sidereal Time
13:45:15
Azimuth
Unknown
Elevation
Unknown
Doppler factor
Unknown
Orbital elements
Apogee altitude
881.832 km
Perigee altitude
640.594 km
Semi-major axis
7,139.35 km
Eccentricity
0.0169
Inclination
98.4714°
RAAN
346.8359°
Arg. of periapsis
198.2624°
True anomaly
161.85525°
Mean anomaly
161.245°
Eccentric anomaly
161.55133°
Mean motion
3.59795 °/min
Orbital period
100.06 mins
BSTAR
0.00013455
Loading maneuver chart data...
Computing Atmospheric mass density...

Documentation

Showing up to 5 results
|